(291894) = 2006 PN42

Discovered at Siding Spring on 2006-08-14 by Siding Spring Survey.

Orbit

Orbit type: Main Belt

Note: WebGL enabled browser required.

epoch2023-09-13.0
epoch JD2460200.5
perihelion date2023-05-19.00435
perihelion JD2460083.50435
argument of perihelion (°)210.69065
ascending node (°)154.80999
inclination (°)5.14989
eccentricity0.1751330
perihelion distance (AU)2.1107583
Tisserand w.r.t. Jupiter3.4
ΔV w.r.t. Earth (km/sec)9.3
semimajor axis (AU)2.5589074
mean anomaly (°)28.17032
mean daily motion (°/day)0.24078090
aphelion distance (AU)3.007
period (years)4.09
P-vector [x]0.99451821
P-vector [y]0.10446025
P-vector [z]-0.00464596
Q-vector [x]-0.09733422
Q-vector [y]0.94107925
Q-vector [z]0.32387634
absolute magnitude17.19
phase slope0.15
uncertainty0
referenceMPEC 2024-A12
observations used156
oppositions13
arc length (days)10710
first opposition used1994
last opposition used2024
residual rms (arc-secs)0.66
perturbers coarse indicatorM-v
perturbers precise indicator003Ek
first observation date used1994-09-05.0
last observation date used2024-01-01.0
computer nameMPCLINUX
JD of orbit computation2456406.162411
perihelion JD uncertainty (days)1.0170E-04
argument of perihelion uncertainty (°)5.3687E-05
ascending node uncertainty (°)4.9258E-05
inclination uncertainty (°)7.4465E-06
eccentricity uncertainty 5.7994E-08
perihelion distance uncertainty (AU)1.5281E-07
Minimum Orbit Intersection Distances (in AU)
for orbit epoch: 2460200.5, reference: E2024-A12
Mercury1.74959
Venus1.38459
Earth1.10982
Mars0.70964
Jupiter2.44156
Saturn6.38551
Uranus15.4595
Neptune27.5723

Observations

156 total observations over interval: 1994 09 05.41667 – 2024 01 01.304172
These data are available for download (format description).

